Погода в Лаукуве

Погода в Лаукуве : погода сейчас, прогноз погоды и архив. Всё, что Вы хотите узнать о погоде в Лаукуве!

Поиск расширенной информации на нашем сайте:

Другие новости

Новости СМИ2

Главная страница сайта

Новости сайта

03.07.2017

Напоминаем, что на нашем специализированном сайте Метеоцентр.Азия вы можете получить высокодетализированные автоматические прогнозы погоды по пунктам России, СНГ и мира в авиационном формате (включающие направление и скорость ветра, видимость, явления погоды, количество и форму облачности, нижнюю и верхнюю границу облачности).


Погода в Лаукуве - сегодня

Время (UTC), дата Ветер
(°,м/с) 
Видим.   Явления Облачность Т
(°С)
Тd
(°С)
f(%) Тe
(°С)
Pmin
(гПа)
dP
(гПа)
Po
(мм)
O2
(г/м3)
Тmin Tmax R s Состояние
почвы
18 21.09.17 040 (СВ) 4-6{09}  4000 м  слаб. дождь  10/10 150 м 
[Frnb|Ns]
+11.5 +11.1 97 +14  1016.2  -0.2  747  286    +12     
21 21.09.17 050 (СВ) 4-6{06}  3400 м  слаб. морось{дождь}  10/10 150 м 
[St]
+11.5 +11.3 99 +14  1015.7  -0.5  747  286           
00 22.09.17 060 (СВ) 4-6{06}  3200 м  слаб. морось{дождь}  10/10 120 м 
[St]
+11.7 +11.3 97 +14  1015.4  -0.3  747  286         
03 22.09.17 050 (СВ) 5-8{08}  20000 м  в посл. час дождь{морось}  10/10 150 м 
[Frnb|Ns]
+11.7 +11.1 96 +14  1015.9  0.5  747  286           
06 22.09.17 070 (В) 3-6{08}  1600 м  дымка{дождь, морось}  10/10 60 м 
[St]
+12.1 +11.8 98 +16  1016.9  748  286  +11.4      мокрая 
09 22.09.17 100 (В) 3-5{08}  20000 м  {туман}  10/10 300 м 
[St]
+14.4 +13.7 96 +22  1018  1.3  749  283           
12 22.09.17 090 (В) 4-6{07}  20000 м  {туман}  10/10 330 м 
[Sc]
+15.8 +14.2 90 +23  1019.1  1.1  749  283           
15 22.09.17 090 (В) 3-4{06}  20000 м    10/10 420 м 
[Sc]
+15.5 +13.9 90 +23  1019.8  0.7  750  282           
18 22.09.17 080 (В) 2-3{05}  14000 м    10/10 500 м 
[Sc]
+14.7 +13.2 91 +21  1021.1  1.2  751  284    +15.9       
21 22.09.17 060 (СВ) 2-3{04}  2400 м  дымка  ясно 
+12.1 +11.8 98 +16  1021.2  -0.1  751  287           
00 23.09.17 070 (В) 3-4{05}  1100 м  в посл. час туман  ясно 
+10.4 +10 97 +11  1021.7  0.4  751  290           
03 23.09.17 100 (В) 4-5{06}  18000 м  {туман}  ясно 
+10.9 +10.5 97 +12  1022.1  0.4  751  288           
06 23.09.17 100 (В) 4-7{07}  19000 м  {туман}  3/0 верхняя 
[Ci fib]
+11.7 +10.7 94 +13  1022.5  0.5  752  288  +9.8        влажная 
09 23.09.17 060 (СВ) 5-7{07}  19000 м    3/0 верхняя 
[Ci fib]
+15.1 +12 82 +19  1022.1  -0.2  752  284           
12 23.09.17 090 (В) 6-9{11}  20000 м    6/0 верхняя 
[Ci sp]
+17.2 +12.7 75 +22  1022.5  0.6  752  283           
15 23.09.17 080 (В) 5-9{10}  20000 м    9/0 средняя, верхняя 
[Ac trans|Cs]
+17 +12.5 75 +22  1023  0.4  752  282           
18 23.09.17 090 (В) 6-8{09}  20000 м    9/0 средняя, верхняя 
[Ac und|Cs]
+14.5 +11.8 84 +18  1024.7  1.5  754  286    +18       
21 23.09.17 120 (ЮВ) 4-6{08}  20000 м    3/0 средняя, верхняя 
[Ac und|Ci fib]
+13.2 +11.1 87 +16  1026.2  1.4  755  287           
00 24.09.17 110 (В) 3-5{06}  20000 м    3/0 верхняя 
[Ci fib]
+11.8 +10.3 91 +13  1027  0.7  755  290           
03 24.09.17 100 (В) 3-5{06}  20000 м    4/0 верхняя 
[Ci fib]
+10.6 +9.7 94 +11  1027.5  0.4  755  290           
06 24.09.17 090 (В) 5-6{06}  20000 м    ясно 
+11.3 +9.7 90 +11  1028  0.6  756  290  +9.5        влажная 
09 24.09.17 090 (В) 7-10{11}  20000 м    ясно 
+16.3 +10.9 70 +18  1028.4  0.7  756  285           
12 24.09.17 100 (В) 6-10{13}  17000 м    ясно 
+18.9 +9.4 54 +19  1028.5  0.2  757  283           
15 24.09.17 080 (В) 5-8{10}  20000 м    ясно 
+17.6 +9.7 60 +19  1028.8  0.2  757  284           
18 24.09.17 080 (В) 5-7{08}  20000 м    ясно 
+13.8 +9.7 76 +14  1029.8  0.8  757  288    +19.1       
Время (UTC), дата Ветер
(°,м/с) 
Видим.   Явления Облачность Т
(°С)
Тd
(°С)
f(%) Тe
(°С)
Pmin
(гПа)
dP
(гПа)
Po
(мм)
O2
(г/м3)
Тmin Tmax R s Состояние
почвы

Для получения пояснительной информации подведите курсор к названию столбца.

ПОГОДА в Лаукуве - архив

Всё, что Вы хотите узнать о погоде в Лаукуве - удобно и подробно!

Выберите нужную дату (начиная с 1 января 2015* года) и нажмите кнопку "Найти".
Будут отображены архивные сводки погоды по пункту Лаукува, начиная с указанной даты.


Отображать данные в формате CSV (для использования в таблицах Excel)


Внимание! Наш архив погоды предназначен исключительно для личного некоммерческого использования в познавательных целях. Если Вам необходимы официальные справки о состоянии погоды (для производственных, юридических, коммерческих и т.п. целей), обращайтесь в органы Росгидромета.

*Примечание: данная дата относится к архиву по метеостанциям СССР (Россия, СНГ, Балтия).
Архив по метеостанциям Зарубежной Европы и Азии (кроме Китая) хранится 10 дней, по другим регионам земного шара (Китай, Африка, Америка, Австралия, Океания) - 1 день.

Лаукува - район местоположения метеостанции


Название, широта, долгота, высота метеостанции:
Лаукува 55.6°ш. 22.2°д. 166 м над ур. моря [Литва]

Дополнительная информация

В oтличие oт бoльшинства пoгoдных сайтoв мы публикуем пoдрoбную метеoинфoрмацию в детальнoм прoфессиoнальнoм фoрмате.

Характеристики температуры и влажнoсти вoздуха измеряются на высoте 2 м в тени вдали oт зданий и деревьев.
Скoрoсть ветра измеряется на высoте 10 м (на урoвне рoста челoвека скoрoсть ветра ниже в 1.5-2 раза). Если метеoстанция нахoдится в гoрoде или в лесу, тo скoрoсть ветра занижена на 2-4 м/с пo сравнению с oткрытым местoм. Скoрoсть ветра над акватoриями крупных рек и oзёр, а также на вершинах хoлмoв на 2-5 м/с выше, чем в oбычных услoвиях.
Атмoсфернoе давление в разных тoчках местнoсти мoжет значительнo oтличаться oт давления на метеoстанции, в зависимoсти oт услoвий рельефа (при пoдъёме на 10 м давление пoнижается примернo на 1 мм рт.ст.).